Owosso, MI

5:29 AM EDT on August 26, 2016 (GMT -0400)
Owosso

Weather History for KRNP - January, 2014

Change the Weather History Date:

Sunday, January 12, 2014

  Actual Average (KFNT) Record (KFNT)
Temperature  
Mean Temperature 34 °F 22 °F  
Max Temperature 37 °F 29 °F 60 °F (2013)
Min Temperature 32 °F 15 °F -11 °F (1926)
Degree Days  
Heating Degree Days 30 43  
Month to date heating degree days 505  
Since 1 July heating degree days 3150  
Cooling Degree Days 0 0  
Month to date cooling degree days 0  
Year to date cooling degree days 0  
Moisture  
Dew Point 28 °F    
Average Humidity 79    
Maximum Humidity 90    
Minimum Humidity 66    
Precipitation  
Precipitation 0.00 in 0.05 in 0.72 in (1960)
Month to date precipitation 0.69  
Year to date precipitation 0.69  
Snow  
Snow 0.00 in 0.40 in 4.40 in (1999)
Month to date snowfall 5.1  
Since 1 July snowfall 19.8  
Snow Depth -    
Sea Level Pressure  
Sea Level Pressure 29.76 in    
Wind  
Wind Speed 12 mph (SSW)    
Max Wind Speed 18 mph    
Max Gust Speed 31 mph    
Visibility 10 miles    
Events      
T = Trace of Precipitation, MM = Missing Value Source: NWS Daily Summary

Daily Weather History Graph

Daily Weather History Graph

Search for Another Location

Airport or City:

Trip Planner

Search our weather history database for the weather conditions in past years. The results will help you decide how hot, cold, wet, or windy it might be!

Date:

Astronomy

Jan. 12, 2014 Rise Set
Actual Time 8:06 AM EST 5:23 PM EST
Civil Twilight 7:34 AM EST 5:55 PM EST
Nautical Twilight 6:59 AM EST 6:30 PM EST
Astronomical Twilight 6:25 AM EST 7:04 PM EST
Moon 2:51 PM EST (1/12) 5:03 AM EST (1/12)
Length of Visible Light 10h 20m
Length of Day
9h 17m
Waxing Gibbous, 89% of the Moon is Illuminated
Jan 12
Waxing Gibbous
Jan 15
Full
Jan 24
Last Quarter
Jan 30
New
Feb 6
First Quarter

Hourly Weather History & Observations

Time (EST) Temp. Windchill Dew Point Humidity Pressure Visibility Wind Dir Wind Speed Gust Speed Precip Events Conditions
12:15 AM 32.0 °F 21.6 °F 29.3 °F 90% 29.63 in 7.0 mi West 15.0 mph 20.7 mph N/A   Overcast
12:34 AM 32.0 °F 21.6 °F 29.1 °F 89% 29.64 in 7.0 mi West 15.0 mph 21.9 mph N/A   Overcast
12:55 AM 32.0 °F 22.1 °F 29.1 °F 89% 29.64 in 7.0 mi West 13.8 mph 20.7 mph N/A   Overcast
1:15 AM 32.0 °F 22.5 °F 28.8 °F 88% 29.65 in 10.0 mi West 12.7 mph 18.4 mph N/A   Overcast
1:35 AM 32.0 °F 23.0 °F 28.4 °F 87% 29.65 in 10.0 mi West 11.5 mph - N/A   Overcast
1:55 AM 32.0 °F 23.0 °F 28.4 °F 87% 29.66 in 10.0 mi WSW 11.5 mph 16.1 mph N/A   Overcast
2:15 AM 32.0 °F 23.6 °F 28.8 °F 88% 29.67 in 10.0 mi West 10.4 mph - N/A   Overcast
2:35 AM 32.0 °F 23.6 °F 28.6 °F 87% 29.67 in 10.0 mi West 10.4 mph - N/A   Overcast
2:55 AM 32.0 °F 24.8 °F 29.1 °F 89% 29.68 in 10.0 mi West 8.1 mph - N/A   Overcast
3:14 AM 32.0 °F 22.5 °F 28.9 °F 88% 29.69 in 10.0 mi West 12.7 mph - N/A   Overcast
3:35 AM 32.2 °F 24.4 °F 28.6 °F 87% 29.71 in 10.0 mi West 9.2 mph - N/A   Overcast
3:55 AM 32.5 °F 23.7 °F 28.4 °F 85% 29.72 in 10.0 mi West 11.5 mph 16.1 mph N/A   Overcast
4:14 AM 32.5 °F 24.2 °F 28.9 °F 87% 29.73 in 10.0 mi West 10.4 mph - N/A   Overcast
4:35 AM 32.4 °F 24.0 °F 29.1 °F 88% 29.73 in 10.0 mi West 10.4 mph - N/A   Overcast
4:55 AM 32.4 °F 23.5 °F 29.3 °F 88% 29.74 in 10.0 mi West 11.5 mph - N/A   Overcast
5:14 AM 32.4 °F 23.0 °F 29.3 °F 88% 29.74 in 10.0 mi West 12.7 mph 18.4 mph N/A   Overcast
5:35 AM 32.2 °F 21.8 °F 29.3 °F 89% 29.75 in 10.0 mi WSW 15.0 mph 20.7 mph N/A   Overcast
5:54 AM 32.2 °F 22.7 °F 28.8 °F 87% 29.76 in 10.0 mi WSW 12.7 mph - N/A   Overcast
6:15 AM 32.0 °F 24.2 °F 28.2 °F 86% 29.77 in 10.0 mi WSW 9.2 mph - N/A   Overcast
6:34 AM 32.0 °F 24.2 °F 27.7 °F 84% 29.77 in 10.0 mi WSW 9.2 mph - N/A   Overcast
6:55 AM 32.0 °F 26.4 °F 27.5 °F 83% 29.78 in 10.0 mi WSW 5.8 mph - N/A   Overcast
7:15 AM 32.0 °F 24.8 °F 27.5 °F 83% 29.79 in 10.0 mi WSW 8.1 mph - N/A   Overcast
7:34 AM 32.0 °F 24.8 °F 27.1 °F 82% 29.79 in 10.0 mi WSW 8.1 mph - N/A   Overcast
7:55 AM 32.0 °F 23.6 °F 27.0 °F 82% 29.79 in 10.0 mi WSW 10.4 mph - N/A   Overcast
8:15 AM 32.0 °F 24.2 °F 27.1 °F 82% 29.81 in 10.0 mi WSW 9.2 mph 17.3 mph N/A   Overcast
8:35 AM 32.0 °F 23.6 °F 27.1 °F 82% 29.82 in 10.0 mi WSW 10.4 mph 16.1 mph N/A   Overcast
8:55 AM 32.0 °F 23.6 °F 27.1 °F 82% 29.84 in 10.0 mi WSW 10.4 mph - N/A   Overcast
9:14 AM 32.0 °F 22.5 °F 27.1 °F 82% 29.84 in 10.0 mi WSW 12.7 mph - N/A   Overcast
9:35 AM 32.2 °F 25.0 °F 27.3 °F 82% 29.86 in 10.0 mi WSW 8.1 mph 19.6 mph N/A   Overcast
9:55 AM 32.9 °F 25.3 °F 27.5 °F 81% 29.87 in 10.0 mi WSW 9.2 mph 17.3 mph N/A   Overcast
10:14 AM 32.4 °F 23.0 °F 27.3 °F 82% 29.85 in 10.0 mi SW 12.7 mph 17.3 mph N/A   Mostly Cloudy
10:35 AM 32.9 °F 25.3 °F 27.3 °F 80% 29.88 in 10.0 mi SW 9.2 mph 17.3 mph N/A   Scattered Clouds
10:55 AM 33.4 °F 25.4 °F 27.5 °F 79% 29.88 in 10.0 mi SW 10.4 mph - N/A   Clear
11:14 AM 33.8 °F 24.8 °F 27.3 °F 77% 29.88 in 10.0 mi SW 12.7 mph 18.4 mph N/A   Clear
11:35 AM 34.0 °F 26.6 °F 27.3 °F 77% 29.88 in 10.0 mi SSW 9.2 mph - N/A   Clear
11:55 AM 35.6 °F 28.6 °F 27.7 °F 73% 29.86 in 10.0 mi SW 9.2 mph 17.3 mph N/A   Clear
12:14 PM 34.9 °F 26.6 °F 27.3 °F 74% 29.85 in 10.0 mi South 11.5 mph - N/A   Clear
12:35 PM 35.4 °F 26.8 °F 28.0 °F 75% 29.84 in 10.0 mi South 12.7 mph - N/A   Clear
12:55 PM 35.4 °F 27.3 °F 27.9 °F 74% 29.82 in 10.0 mi South 11.5 mph - N/A   Clear
1:15 PM 35.2 °F 27.1 °F 27.5 °F 73% 29.83 in 10.0 mi South 11.5 mph 16.1 mph N/A   Clear
1:35 PM 36.7 °F 29.4 °F 27.9 °F 70% 29.81 in 10.0 mi SSW 10.4 mph - N/A   Clear
1:55 PM 36.5 °F 28.2 °F 27.1 °F 69% 29.79 in 10.0 mi South 12.7 mph 18.4 mph N/A   Clear
2:15 PM 36.9 °F 28.2 °F 27.1 °F 68% 29.79 in 10.0 mi South 13.8 mph - N/A   Clear
2:35 PM 36.5 °F 29.7 °F 26.8 °F 68% 29.78 in 10.0 mi South 9.2 mph - N/A   Clear
2:54 PM 36.7 °F 31.2 °F 27.1 °F 68% 29.78 in 10.0 mi South 6.9 mph 17.3 mph N/A   Clear
3:15 PM 37.0 °F 29.8 °F 27.7 °F 69% 29.79 in 10.0 mi South 10.4 mph - N/A   Clear
3:35 PM 37.6 °F 30.0 °F 27.5 °F 67% 29.79 in 10.0 mi South 11.5 mph - N/A   Clear
3:54 PM 37.9 °F 32.7 °F 27.3 °F 66% 29.79 in 10.0 mi South 6.9 mph 17.3 mph N/A   Clear
4:15 PM 37.4 °F 31.4 °F 27.1 °F 66% 29.78 in 10.0 mi South 8.1 mph - N/A   Clear
4:34 PM 37.2 °F 30.6 °F 27.0 °F 66% 29.77 in 10.0 mi South 9.2 mph 20.7 mph N/A   Clear
4:55 PM 36.7 °F 29.4 °F 26.6 °F 67% 29.77 in 10.0 mi South 10.4 mph 18.4 mph N/A   Clear
5:15 PM 36.1 °F 28.2 °F 26.6 °F 68% 29.77 in 10.0 mi South 11.5 mph 16.1 mph N/A   Clear
5:34 PM 35.6 °F 27.5 °F 27.0 °F 71% 29.76 in 10.0 mi South 11.5 mph 16.1 mph N/A   Clear
5:55 PM 34.9 °F 26.6 °F 27.0 °F 73% 29.75 in 10.0 mi SSE 11.5 mph 20.7 mph N/A   Clear
6:15 PM 34.3 °F 25.0 °F 26.6 °F 73% 29.75 in 10.0 mi South 13.8 mph 23.0 mph N/A   Clear
6:35 PM 34.7 °F 24.3 °F 26.1 °F 71% 29.73 in 10.0 mi SSE 17.3 mph 24.2 mph N/A   Clear
6:55 PM 34.0 °F 23.0 °F 26.4 °F 74% 29.72 in 10.0 mi SSE 18.4 mph 23.0 mph N/A   Clear
7:14 PM 34.0 °F 23.8 °F 26.6 °F 74% 29.72 in 10.0 mi SSE 16.1 mph 26.5 mph N/A   Clear
7:35 PM 34.0 °F 23.8 °F 27.3 °F 77% 29.69 in 10.0 mi South 16.1 mph 26.5 mph N/A   Clear
7:55 PM 34.7 °F 24.7 °F 27.9 °F 76% 29.69 in 10.0 mi South 16.1 mph 31.1 mph N/A   Clear
8:14 PM 35.1 °F 24.8 °F 28.0 °F 76% 29.69 in 10.0 mi South 17.3 mph 27.6 mph N/A   Clear
8:35 PM 35.1 °F 25.5 °F 28.4 °F 77% 29.70 in 10.0 mi South 15.0 mph 21.9 mph N/A   Clear
8:55 PM 35.6 °F 27.1 °F 28.9 °F 77% 29.72 in 10.0 mi SSW 12.7 mph 21.9 mph N/A   Clear
9:14 PM 34.9 °F 26.6 °F 29.3 °F 80% 29.73 in 10.0 mi South 11.5 mph 19.6 mph N/A   Clear
9:35 PM 35.2 °F 25.8 °F 29.3 °F 79% 29.71 in 10.0 mi South 15.0 mph 20.7 mph N/A   Clear
9:54 PM 35.6 °F 27.1 °F 29.7 °F 79% 29.70 in 10.0 mi South 12.7 mph 21.9 mph N/A   Clear
10:15 PM 35.6 °F 27.1 °F 29.8 °F 80% 29.70 in 10.0 mi South 12.7 mph - N/A   Clear
10:34 PM 35.8 °F 28.3 °F 29.8 °F 79% 29.70 in 10.0 mi South 10.4 mph 16.1 mph N/A   Clear
10:55 PM 35.8 °F 29.4 °F 29.7 °F 78% 29.70 in 10.0 mi South 8.1 mph - N/A   Clear
11:15 PM 35.6 °F 28.0 °F 29.8 °F 80% 29.69 in 10.0 mi South 10.4 mph - N/A   Clear
11:35 PM 36.0 °F 29.0 °F 29.3 °F 77% 29.68 in 10.0 mi South 9.2 mph 16.1 mph N/A   Clear
11:55 PM 36.7 °F 28.9 °F 29.3 °F 75% 29.67 in 10.0 mi South 11.5 mph 17.3 mph N/A   Clear